Year,Month,Day,Hour,Minute,Value (Times are PST for temperature in C)
2009,07,19,00,00,14.40
2009,07,19,00,01,14.30
2009,07,19,00,02,14.20
2009,07,19,00,03,14.20
2009,07,19,00,04,14.20
2009,07,19,00,05,14.20
2009,07,19,00,06,14.10
2009,07,19,00,07,14.10
2009,07,19,00,08,14.10
2009,07,19,00,09,14.10
2009,07,19,00,10,14.00
2009,07,19,00,11,14.00
2009,07,19,00,12,13.90
2009,07,19,00,13,13.90
2009,07,19,00,14,13.80
2009,07,19,00,15,13.70
2009,07,19,00,16,13.70
2009,07,19,00,17,13.70
2009,07,19,00,18,13.70
2009,07,19,00,19,13.70
2009,07,19,00,20,13.70
2009,07,19,00,21,13.70
2009,07,19,00,22,13.70
2009,07,19,00,23,13.70
2009,07,19,00,24,13.70
2009,07,19,00,25,13.70
2009,07,19,00,26,13.70
2009,07,19,00,27,13.70
2009,07,19,00,28,13.70
2009,07,19,00,29,13.70
2009,07,19,00,30,13.60
2009,07,19,00,31,13.60
2009,07,19,00,32,13.60
2009,07,19,00,33,13.60
2009,07,19,00,34,13.60
2009,07,19,00,35,13.60
2009,07,19,00,36,13.60
2009,07,19,00,37,13.50
2009,07,19,00,38,13.50
2009,07,19,00,39,13.50
2009,07,19,00,40,13.50
2009,07,19,00,41,13.50
2009,07,19,00,42,13.40
2009,07,19,00,43,13.40
2009,07,19,00,44,13.40
2009,07,19,00,45,13.30
2009,07,19,00,46,13.30
2009,07,19,00,47,13.30
2009,07,19,00,48,13.30
2009,07,19,00,49,13.30
2009,07,19,00,50,13.30
2009,07,19,00,51,13.30
2009,07,19,00,52,13.30
2009,07,19,00,53,13.20
2009,07,19,00,54,13.20
2009,07,19,00,55,13.20
2009,07,19,00,56,13.20
2009,07,19,00,57,13.10
2009,07,19,00,58,13.10
2009,07,19,00,59,13.10
2009,07,19,01,00,13.00
2009,07,19,01,01,13.00
2009,07,19,01,02,13.00
2009,07,19,01,03,12.90
2009,07,19,01,04,12.90
2009,07,19,01,05,12.90
2009,07,19,01,06,12.80
2009,07,19,01,07,12.80
2009,07,19,01,08,12.80
2009,07,19,01,09,12.80
2009,07,19,01,10,12.80
2009,07,19,01,11,12.70
2009,07,19,01,12,12.70
2009,07,19,01,13,12.70
2009,07,19,01,14,12.60
2009,07,19,01,15,12.60
2009,07,19,01,16,12.60
2009,07,19,01,17,12.60
2009,07,19,01,18,12.60
2009,07,19,01,19,12.60
2009,07,19,01,20,12.60
2009,07,19,01,21,12.60
2009,07,19,01,22,12.50
2009,07,19,01,23,12.50
2009,07,19,01,24,12.50
2009,07,19,01,25,12.50
2009,07,19,01,26,12.50
2009,07,19,01,27,12.50
2009,07,19,01,28,12.40
2009,07,19,01,29,12.40
2009,07,19,01,30,12.40
2009,07,19,01,31,12.40
2009,07,19,01,32,12.40
2009,07,19,01,33,12.30
2009,07,19,01,34,12.30
2009,07,19,01,35,12.30
2009,07,19,01,36,12.30
2009,07,19,01,37,12.30
2009,07,19,01,38,12.30
2009,07,19,01,39,12.30
2009,07,19,01,40,12.20
2009,07,19,01,41,12.20
2009,07,19,01,42,12.20
2009,07,19,01,43,12.10
2009,07,19,01,44,12.10
2009,07,19,01,45,12.10
2009,07,19,01,46,12.10
2009,07,19,01,47,12.10
2009,07,19,01,48,12.00
2009,07,19,01,49,12.00
2009,07,19,01,50,12.00
2009,07,19,01,51,12.00
2009,07,19,01,52,12.00
2009,07,19,01,53,12.00
2009,07,19,01,54,11.90
2009,07,19,01,55,11.90
2009,07,19,01,56,11.90
2009,07,19,01,57,11.90
2009,07,19,01,58,11.90
2009,07,19,01,59,11.90
2009,07,19,02,00,11.80
2009,07,19,02,01,11.80
2009,07,19,02,02,11.80
2009,07,19,02,03,11.80
2009,07,19,02,04,11.80
2009,07,19,02,05,11.80
2009,07,19,02,06,11.80
2009,07,19,02,07,11.80
2009,07,19,02,08,11.80
2009,07,19,02,09,11.80
2009,07,19,02,10,11.80
2009,07,19,02,11,11.80
2009,07,19,02,12,11.70
2009,07,19,02,13,11.70
2009,07,19,02,14,11.70
2009,07,19,02,15,11.70
2009,07,19,02,16,11.70
2009,07,19,02,17,11.70
2009,07,19,02,18,11.70
2009,07,19,02,19,11.70
2009,07,19,02,20,11.70
2009,07,19,02,21,11.70
2009,07,19,02,22,11.70
2009,07,19,02,23,11.70
2009,07,19,02,24,11.70
2009,07,19,02,25,11.70
2009,07,19,02,26,11.70
2009,07,19,02,27,11.70
2009,07,19,02,28,11.70
2009,07,19,02,29,11.70
2009,07,19,02,30,11.70
2009,07,19,02,31,11.60
2009,07,19,02,32,11.60
2009,07,19,02,33,11.60
2009,07,19,02,34,11.60
2009,07,19,02,35,11.60
2009,07,19,02,36,11.70
2009,07,19,02,37,11.70
2009,07,19,02,38,11.70
2009,07,19,02,39,11.70
2009,07,19,02,40,11.80
2009,07,19,02,41,11.80
2009,07,19,02,42,11.80
2009,07,19,02,43,11.90
2009,07,19,02,44,11.90
2009,07,19,02,45,12.00
2009,07,19,02,46,12.00
2009,07,19,02,47,12.00
2009,07,19,02,48,12.00
2009,07,19,02,49,12.00
2009,07,19,02,50,12.00
2009,07,19,02,51,12.00
2009,07,19,02,52,12.00
2009,07,19,02,53,12.00
2009,07,19,02,54,12.00
2009,07,19,02,55,11.90
2009,07,19,02,56,11.90
2009,07,19,02,57,11.90
2009,07,19,02,58,11.90
2009,07,19,02,59,11.90
2009,07,19,03,00,11.80
2009,07,19,03,01,11.80
2009,07,19,03,02,11.80
2009,07,19,03,03,11.80
2009,07,19,03,04,11.80
2009,07,19,03,05,11.80
2009,07,19,03,06,11.70
2009,07,19,03,07,11.70
2009,07,19,03,08,11.60
2009,07,19,03,09,11.60
2009,07,19,03,10,11.60
2009,07,19,03,11,11.60
2009,07,19,03,12,11.60
2009,07,19,03,13,11.60
2009,07,19,03,14,11.60
2009,07,19,03,15,11.60
2009,07,19,03,16,11.50
2009,07,19,03,17,11.40
2009,07,19,03,18,11.40
2009,07,19,03,19,11.40
2009,07,19,03,20,11.40
2009,07,19,03,21,11.40
2009,07,19,03,22,11.30
2009,07,19,03,23,11.30
2009,07,19,03,24,11.30
2009,07,19,03,25,11.20
2009,07,19,03,26,11.20
2009,07,19,03,27,11.20
2009,07,19,03,28,11.20
2009,07,19,03,29,11.10
2009,07,19,03,30,11.10
2009,07,19,03,31,11.10
2009,07,19,03,32,11.10
2009,07,19,03,33,11.10
2009,07,19,03,34,11.10
2009,07,19,03,35,11.10
2009,07,19,03,36,11.10
2009,07,19,03,37,11.00
2009,07,19,03,38,10.90
2009,07,19,03,39,10.90
2009,07,19,03,40,10.90
2009,07,19,03,41,10.90
2009,07,19,03,42,10.90
2009,07,19,03,43,10.90
2009,07,19,03,44,10.90
2009,07,19,03,45,11.00
2009,07,19,03,46,11.10
2009,07,19,03,47,11.10
2009,07,19,03,48,11.10
2009,07,19,03,49,11.10
2009,07,19,03,50,11.20
2009,07,19,03,51,11.20
2009,07,19,03,52,11.30
2009,07,19,03,53,11.30
2009,07,19,03,54,11.40
2009,07,19,03,55,11.50
2009,07,19,03,56,11.60
2009,07,19,03,57,11.60
2009,07,19,03,58,11.70
2009,07,19,03,59,11.70
2009,07,19,04,00,11.80
2009,07,19,04,01,11.80
2009,07,19,04,02,11.80
2009,07,19,04,03,11.80
2009,07,19,04,04,11.80
2009,07,19,04,05,11.80
2009,07,19,04,06,11.80
2009,07,19,04,07,11.80
2009,07,19,04,08,11.90
2009,07,19,04,09,11.90
2009,07,19,04,10,11.80
2009,07,19,04,11,11.80
2009,07,19,04,12,11.80
2009,07,19,04,13,11.80
2009,07,19,04,14,11.80
2009,07,19,04,15,11.80
2009,07,19,04,16,11.80
2009,07,19,04,17,11.80
2009,07,19,04,18,11.80
2009,07,19,04,19,11.80
2009,07,19,04,20,11.80
2009,07,19,04,21,11.80
2009,07,19,04,22,11.80
2009,07,19,04,23,11.80
2009,07,19,04,24,11.80
2009,07,19,04,25,11.80
2009,07,19,04,26,11.80
2009,07,19,04,27,11.80
2009,07,19,04,28,11.80
2009,07,19,04,29,11.80
2009,07,19,04,30,11.80
2009,07,19,04,31,11.80
2009,07,19,04,32,11.80
2009,07,19,04,33,11.80
2009,07,19,04,34,11.80
2009,07,19,04,35,11.80
2009,07,19,04,36,11.80
2009,07,19,04,37,11.80
2009,07,19,04,38,11.80
2009,07,19,04,39,11.80
2009,07,19,04,40,11.70
2009,07,19,04,41,11.70
2009,07,19,04,42,11.70
2009,07,19,04,43,11.60
2009,07,19,04,44,11.60
2009,07,19,04,45,11.60
2009,07,19,04,46,11.60
2009,07,19,04,47,11.50
2009,07,19,04,48,11.40
2009,07,19,04,49,11.40
2009,07,19,04,50,11.40
2009,07,19,04,51,11.40
2009,07,19,04,52,11.30
2009,07,19,04,53,11.30
2009,07,19,04,54,11.20
2009,07,19,04,55,11.20
2009,07,19,04,56,11.10
2009,07,19,04,57,11.10
2009,07,19,04,58,11.10
2009,07,19,04,59,11.00
2009,07,19,05,00,10.90
2009,07,19,05,01,10.90
2009,07,19,05,02,10.90
2009,07,19,05,03,10.80
2009,07,19,05,04,10.80
2009,07,19,05,05,10.80
2009,07,19,05,06,10.70
2009,07,19,05,07,10.70
2009,07,19,05,08,10.60
2009,07,19,05,09,10.60
2009,07,19,05,10,10.60
2009,07,19,05,11,10.60
2009,07,19,05,12,10.50
2009,07,19,05,13,10.40
2009,07,19,05,14,10.40
2009,07,19,05,15,10.40
2009,07,19,05,16,10.40
2009,07,19,05,17,10.40
2009,07,19,05,18,10.40
2009,07,19,05,19,10.40
2009,07,19,05,20,10.40
2009,07,19,05,21,10.40
2009,07,19,05,22,10.30
2009,07,19,05,23,10.30
2009,07,19,05,24,10.30
2009,07,19,05,25,10.30
2009,07,19,05,26,10.20
2009,07,19,05,27,10.20
2009,07,19,05,28,10.20
2009,07,19,05,29,10.10
2009,07,19,05,30,10.10
2009,07,19,05,31,10.10
2009,07,19,05,32,10.10
2009,07,19,05,33,10.10
2009,07,19,05,34,10.10
2009,07,19,05,35,10.10
2009,07,19,05,36,10.10
2009,07,19,05,37,10.10
2009,07,19,05,38,10.10
2009,07,19,05,39,10.10
2009,07,19,05,40,10.00
2009,07,19,05,41,9.90
2009,07,19,05,42,9.90
2009,07,19,05,43,9.90
2009,07,19,05,44,9.90
2009,07,19,05,45,9.90
2009,07,19,05,46,9.90
2009,07,19,05,47,9.90
2009,07,19,05,48,9.90
2009,07,19,05,49,9.90
2009,07,19,05,50,9.90
2009,07,19,05,51,9.80
2009,07,19,05,52,9.80
2009,07,19,05,53,9.80
2009,07,19,05,54,9.80
2009,07,19,05,55,9.80
2009,07,19,05,56,9.80
2009,07,19,05,57,9.80
2009,07,19,05,58,9.70
2009,07,19,05,59,9.70
2009,07,19,06,00,9.70
2009,07,19,06,01,9.70
2009,07,19,06,02,9.70
2009,07,19,06,03,9.70
2009,07,19,06,04,9.70
2009,07,19,06,05,9.70
2009,07,19,06,06,9.70
2009,07,19,06,07,9.70
2009,07,19,06,08,9.70
2009,07,19,06,09,9.70
2009,07,19,06,10,9.70
2009,07,19,06,11,9.70
2009,07,19,06,12,9.70
2009,07,19,06,13,9.70
2009,07,19,06,14,9.70
2009,07,19,06,15,9.70
2009,07,19,06,16,9.70
2009,07,19,06,17,9.70
2009,07,19,06,18,9.70
2009,07,19,06,19,9.70
2009,07,19,06,20,9.70
2009,07,19,06,21,9.70
2009,07,19,06,22,9.70
2009,07,19,06,23,9.70
2009,07,19,06,24,9.70
2009,07,19,06,25,9.70
2009,07,19,06,26,9.70
2009,07,19,06,27,9.70
2009,07,19,06,28,9.70
2009,07,19,06,29,9.70
2009,07,19,06,30,9.70
2009,07,19,06,31,9.70
2009,07,19,06,32,9.70
2009,07,19,06,33,9.70
2009,07,19,06,34,9.70
2009,07,19,06,35,9.80
2009,07,19,06,36,9.80
2009,07,19,06,37,9.80
2009,07,19,06,38,9.80
2009,07,19,06,39,9.90
2009,07,19,06,40,9.90
2009,07,19,06,41,10.00
2009,07,19,06,42,10.10
2009,07,19,06,43,10.10
2009,07,19,06,44,10.20
2009,07,19,06,45,10.30
2009,07,19,06,46,10.40
2009,07,19,06,47,10.40
2009,07,19,06,48,10.60
2009,07,19,06,49,10.70
2009,07,19,06,50,10.80
2009,07,19,06,51,10.90
2009,07,19,06,52,11.00
2009,07,19,06,53,11.10
2009,07,19,06,54,11.20
2009,07,19,06,55,11.30
2009,07,19,06,56,11.40
2009,07,19,06,57,11.50
2009,07,19,06,58,11.60
2009,07,19,06,59,11.70
2009,07,19,07,00,11.80
2009,07,19,07,01,11.80
2009,07,19,07,02,11.90
2009,07,19,07,03,12.00
2009,07,19,07,04,12.00
2009,07,19,07,05,12.10
2009,07,19,07,06,12.20
2009,07,19,07,07,12.30
2009,07,19,07,08,12.30
2009,07,19,07,09,12.40
2009,07,19,07,10,12.40
2009,07,19,07,11,12.50
2009,07,19,07,12,12.60
2009,07,19,07,13,12.70
2009,07,19,07,14,12.70
2009,07,19,07,15,12.80
2009,07,19,07,16,12.90
2009,07,19,07,17,13.00
2009,07,19,07,18,13.10
2009,07,19,07,19,13.20
2009,07,19,07,20,13.20
2009,07,19,07,21,13.30
2009,07,19,07,22,13.40
2009,07,19,07,23,13.50
2009,07,19,07,24,13.60
2009,07,19,07,25,13.60
2009,07,19,07,26,13.70
2009,07,19,07,27,13.70
2009,07,19,07,28,13.80
2009,07,19,07,29,13.90
2009,07,19,07,30,13.90
2009,07,19,07,31,14.00
2009,07,19,07,32,14.10
2009,07,19,07,33,14.20
2009,07,19,07,34,14.20
2009,07,19,07,35,14.20
2009,07,19,07,36,14.20
2009,07,19,07,37,14.30
2009,07,19,07,38,14.40
2009,07,19,07,39,14.50
2009,07,19,07,40,14.50
2009,07,19,07,41,14.60
2009,07,19,07,42,14.60
2009,07,19,07,43,14.70
2009,07,19,07,44,14.80
2009,07,19,07,45,14.80
2009,07,19,07,46,14.90
2009,07,19,07,47,15.00
2009,07,19,07,48,15.10
2009,07,19,07,49,15.20
2009,07,19,07,50,15.30
2009,07,19,07,51,15.30
2009,07,19,07,52,15.30
2009,07,19,07,53,15.40
2009,07,19,07,54,15.40
2009,07,19,07,55,15.40
2009,07,19,07,56,15.50
2009,07,19,07,57,15.50
2009,07,19,07,58,15.50
2009,07,19,07,59,15.50
2009,07,19,08,00,15.50
2009,07,19,08,01,15.60
2009,07,19,08,02,15.60
2009,07,19,08,03,15.70
2009,07,19,08,04,15.70
2009,07,19,08,05,15.90
2009,07,19,08,06,16.00
2009,07,19,08,07,16.10
2009,07,19,08,08,16.30
2009,07,19,08,09,16.30
2009,07,19,08,10,16.40
2009,07,19,08,11,16.60
2009,07,19,08,12,16.70
2009,07,19,08,13,16.80
2009,07,19,08,14,16.90
2009,07,19,08,15,17.10
2009,07,19,08,16,17.20
2009,07,19,08,17,17.30
2009,07,19,08,18,17.40
2009,07,19,08,19,17.50
2009,07,19,08,20,17.60
2009,07,19,08,21,17.70
2009,07,19,08,22,17.90
2009,07,19,08,23,18.00
2009,07,19,08,24,18.10
2009,07,19,08,25,18.20
2009,07,19,08,26,18.40
2009,07,19,08,27,18.50
2009,07,19,08,28,18.60
2009,07,19,08,29,18.70
2009,07,19,08,30,18.80
2009,07,19,08,31,18.90
2009,07,19,08,32,18.90
2009,07,19,08,33,19.00
2009,07,19,08,34,19.10
2009,07,19,08,35,19.10
2009,07,19,08,36,19.20
2009,07,19,08,37,19.30
2009,07,19,08,38,19.40
2009,07,19,08,39,19.40
2009,07,19,08,40,19.50
2009,07,19,08,41,19.60
2009,07,19,08,42,19.70
2009,07,19,08,43,19.80
2009,07,19,08,44,19.90
2009,07,19,08,45,19.90
2009,07,19,08,46,20.00
2009,07,19,08,47,20.10
2009,07,19,08,48,20.20
2009,07,19,08,49,20.20
2009,07,19,08,50,20.20
2009,07,19,08,51,20.30
2009,07,19,08,52,20.30
2009,07,19,08,53,20.40
2009,07,19,08,54,20.50
2009,07,19,08,55,20.50
2009,07,19,08,56,20.60
2009,07,19,08,57,20.60
2009,07,19,08,58,20.60
2009,07,19,08,59,20.70
2009,07,19,09,00,20.70
2009,07,19,09,01,20.70
2009,07,19,09,02,20.70
2009,07,19,09,03,20.70
2009,07,19,09,04,20.80
2009,07,19,09,05,20.80
2009,07,19,09,06,20.70
2009,07,19,09,07,20.50
2009,07,19,09,08,20.50
2009,07,19,09,09,20.40
2009,07,19,09,10,20.40
2009,07,19,09,11,20.40
2009,07,19,09,12,20.20
2009,07,19,09,13,20.10
2009,07,19,09,14,19.90
2009,07,19,09,15,19.90
2009,07,19,09,16,19.90
2009,07,19,09,17,19.90
2009,07,19,09,18,19.90
2009,07,19,09,19,19.90
2009,07,19,09,20,20.10
2009,07,19,09,21,20.20
2009,07,19,09,22,20.20
2009,07,19,09,23,20.20
2009,07,19,09,24,20.40
2009,07,19,09,25,20.50
2009,07,19,09,26,20.60
2009,07,19,09,27,20.70
2009,07,19,09,28,20.80
2009,07,19,09,29,20.80
2009,07,19,09,30,20.80
2009,07,19,09,31,20.70
2009,07,19,09,32,20.60
2009,07,19,09,33,20.60
2009,07,19,09,34,20.70
2009,07,19,09,35,20.60
2009,07,19,09,36,20.60
2009,07,19,09,37,20.50
2009,07,19,09,38,20.40
2009,07,19,09,39,20.40
2009,07,19,09,40,20.40
2009,07,19,09,41,20.50
2009,07,19,09,42,20.50
2009,07,19,09,43,20.60
2009,07,19,09,44,20.70
2009,07,19,09,45,20.80
2009,07,19,09,46,20.80
2009,07,19,09,47,20.80
2009,07,19,09,48,20.80
2009,07,19,09,49,20.90
2009,07,19,09,50,20.90
2009,07,19,09,51,21.00
2009,07,19,09,52,21.20
2009,07,19,09,53,21.30
2009,07,19,09,54,21.30
2009,07,19,09,55,21.40
2009,07,19,09,56,21.60
2009,07,19,09,57,21.60
2009,07,19,09,58,21.60
2009,07,19,09,59,21.60
2009,07,19,10,00,21.50
2009,07,19,10,01,21.40
2009,07,19,10,02,21.30
2009,07,19,10,03,21.30
2009,07,19,10,04,21.30
2009,07,19,10,05,21.20
2009,07,19,10,06,21.20
2009,07,19,10,07,21.20
2009,07,19,10,08,21.20
2009,07,19,10,09,21.20
2009,07,19,10,10,21.20
2009,07,19,10,11,21.10
2009,07,19,10,12,21.20
2009,07,19,10,13,21.20
2009,07,19,10,14,21.20
2009,07,19,10,15,21.20
2009,07,19,10,16,21.20
2009,07,19,10,17,21.10
2009,07,19,10,18,21.10
2009,07,19,10,19,21.20
2009,07,19,10,20,21.30
2009,07,19,10,21,21.30
2009,07,19,10,22,21.30
2009,07,19,10,23,21.30
2009,07,19,10,24,21.30
2009,07,19,10,25,21.30
2009,07,19,10,26,21.30
2009,07,19,10,27,21.30
2009,07,19,10,28,21.40
2009,07,19,10,29,21.50
2009,07,19,10,30,21.60
2009,07,19,10,31,21.60
2009,07,19,10,32,21.60
2009,07,19,10,33,21.60
2009,07,19,10,34,21.60
2009,07,19,10,35,21.50
2009,07,19,10,36,21.40
2009,07,19,10,37,21.30
2009,07,19,10,38,21.30
2009,07,19,10,39,21.40
2009,07,19,10,40,21.40
2009,07,19,10,41,21.50
2009,07,19,10,42,21.60
2009,07,19,10,43,21.60
2009,07,19,10,44,21.60
2009,07,19,10,45,21.60
2009,07,19,10,46,21.60
2009,07,19,10,47,21.40
2009,07,19,10,48,21.20
2009,07,19,10,49,21.20
2009,07,19,10,50,21.00
2009,07,19,10,51,20.90
2009,07,19,10,52,20.80
2009,07,19,10,53,20.70
2009,07,19,10,54,20.60
2009,07,19,10,55,20.60
2009,07,19,10,56,20.60
2009,07,19,10,57,20.70
2009,07,19,10,58,20.70
2009,07,19,10,59,20.70
2009,07,19,11,00,20.80
2009,07,19,11,01,21.00
2009,07,19,11,02,21.10
2009,07,19,11,03,21.30
2009,07,19,11,04,21.40
2009,07,19,11,05,21.60
2009,07,19,11,06,21.60
2009,07,19,11,07,21.60
2009,07,19,11,08,21.60
2009,07,19,11,09,21.60
2009,07,19,11,10,21.50
2009,07,19,11,11,21.50
2009,07,19,11,12,21.60
2009,07,19,11,13,21.60
2009,07,19,11,14,21.60
2009,07,19,11,15,21.60
2009,07,19,11,16,21.60
2009,07,19,11,17,21.70
2009,07,19,11,18,21.70
2009,07,19,11,19,21.70
2009,07,19,11,20,21.70
2009,07,19,11,21,21.70
2009,07,19,11,22,21.70
2009,07,19,11,23,21.70
2009,07,19,11,24,21.70
2009,07,19,11,25,21.70
2009,07,19,11,26,21.70
2009,07,19,11,27,21.60
2009,07,19,11,28,21.60
2009,07,19,11,29,21.60
2009,07,19,11,30,21.60
2009,07,19,11,31,21.60
2009,07,19,11,32,21.60
2009,07,19,11,33,21.60
2009,07,19,11,34,21.50
2009,07,19,11,35,21.40
2009,07,19,11,36,21.30
2009,07,19,11,37,21.30
2009,07,19,11,38,21.30
2009,07,19,11,39,21.30
2009,07,19,11,40,21.30
2009,07,19,11,41,21.30
2009,07,19,11,42,21.40
2009,07,19,11,43,21.40
2009,07,19,11,44,21.30
2009,07,19,11,45,21.10
2009,07,19,11,46,21.00
2009,07,19,11,47,21.00
2009,07,19,11,48,21.00
2009,07,19,11,49,21.10
2009,07,19,11,50,21.20
2009,07,19,11,51,21.30
2009,07,19,11,52,21.30
2009,07,19,11,53,21.30
2009,07,19,11,54,21.20
2009,07,19,11,55,21.20
2009,07,19,11,56,21.20
2009,07,19,11,57,21.20
2009,07,19,11,58,21.20
2009,07,19,11,59,21.10
2009,07,19,12,00,21.10
2009,07,19,12,01,21.10
2009,07,19,12,02,21.20
2009,07,19,12,03,21.30
2009,07,19,12,04,21.30
2009,07,19,12,05,21.40
2009,07,19,12,06,21.40
2009,07,19,12,07,21.40
2009,07,19,12,08,21.60
2009,07,19,12,09,21.50
2009,07,19,12,10,21.40
2009,07,19,12,11,21.40
2009,07,19,12,12,21.40
2009,07,19,12,13,21.30
2009,07,19,12,14,21.20
2009,07,19,12,15,21.20
2009,07,19,12,16,21.20
2009,07,19,12,17,21.20
2009,07,19,12,18,21.20
2009,07,19,12,19,21.20
2009,07,19,12,20,21.10
2009,07,19,12,21,21.20
2009,07,19,12,22,21.30
2009,07,19,12,23,21.30
2009,07,19,12,24,21.30
2009,07,19,12,25,21.20
2009,07,19,12,26,21.20
2009,07,19,12,27,21.30
2009,07,19,12,28,21.30
2009,07,19,12,29,21.30
2009,07,19,12,30,21.20
2009,07,19,12,31,21.10
2009,07,19,12,32,21.10
2009,07,19,12,33,21.10
2009,07,19,12,34,21.10
2009,07,19,12,35,21.20
2009,07,19,12,36,21.30
2009,07,19,12,37,21.40
2009,07,19,12,38,21.60
2009,07,19,12,39,21.60
2009,07,19,12,40,21.60
2009,07,19,12,41,21.80
2009,07,19,12,42,22.00
2009,07,19,12,43,22.00
2009,07,19,12,44,22.10
2009,07,19,12,45,22.10
2009,07,19,12,46,22.00
2009,07,19,12,47,21.90
2009,07,19,12,48,21.70
2009,07,19,12,49,21.60
2009,07,19,12,50,21.60
2009,07,19,12,51,21.70
2009,07,19,12,52,21.70
2009,07,19,12,53,21.80
2009,07,19,12,54,21.90
2009,07,19,12,55,21.80
2009,07,19,12,56,21.70
2009,07,19,12,57,21.60
2009,07,19,12,58,21.60
2009,07,19,12,59,21.40
2009,07,19,13,00,21.40
2009,07,19,13,01,21.60
2009,07,19,13,02,21.60
2009,07,19,13,03,21.60
2009,07,19,13,04,21.70
2009,07,19,13,05,21.90
2009,07,19,13,06,22.10
2009,07,19,13,07,22.20
2009,07,19,13,08,22.20
2009,07,19,13,09,22.10
2009,07,19,13,10,22.10
2009,07,19,13,11,22.10
2009,07,19,13,12,22.00
2009,07,19,13,13,22.00
2009,07,19,13,14,21.80
2009,07,19,13,15,21.80
2009,07,19,13,16,21.80
2009,07,19,13,17,21.80
2009,07,19,13,18,21.80
2009,07,19,13,19,21.90
2009,07,19,13,20,22.00
2009,07,19,13,21,22.00
2009,07,19,13,22,22.00
2009,07,19,13,23,22.00
2009,07,19,13,24,22.00
2009,07,19,13,25,22.10
2009,07,19,13,26,22.10
2009,07,19,13,27,22.20
2009,07,19,13,28,22.30
2009,07,19,13,29,22.20
2009,07,19,13,30,22.00
2009,07,19,13,31,22.00
2009,07,19,13,32,22.10
2009,07,19,13,33,22.20
2009,07,19,13,34,22.30
2009,07,19,13,35,22.30
2009,07,19,13,36,22.40
2009,07,19,13,37,22.40
2009,07,19,13,38,22.40
2009,07,19,13,39,22.50
2009,07,19,13,40,22.50
2009,07,19,13,41,22.50
2009,07,19,13,42,22.50
2009,07,19,13,43,22.40
2009,07,19,13,44,22.40
2009,07,19,13,45,22.50
2009,07,19,13,46,22.60
2009,07,19,13,47,22.70
2009,07,19,13,48,22.80
2009,07,19,13,49,22.80
2009,07,19,13,50,22.80
2009,07,19,13,51,22.70
2009,07,19,13,52,22.60
2009,07,19,13,53,22.30
2009,07,19,13,54,22.10
2009,07,19,13,55,22.00
2009,07,19,13,56,21.80
2009,07,19,13,57,21.70
2009,07,19,13,58,21.60
2009,07,19,13,59,21.60
2009,07,19,14,00,21.70
2009,07,19,14,01,21.60
2009,07,19,14,02,21.50
2009,07,19,14,03,21.40
2009,07,19,14,04,21.30
2009,07,19,14,05,21.30
2009,07,19,14,06,21.40
2009,07,19,14,07,21.60
2009,07,19,14,08,21.70
2009,07,19,14,09,21.80
2009,07,19,14,10,21.80
2009,07,19,14,11,21.70
2009,07,19,14,12,21.70
2009,07,19,14,13,21.70
2009,07,19,14,14,21.60
2009,07,19,14,15,21.60
2009,07,19,14,16,21.60
2009,07,19,14,17,21.60
2009,07,19,14,18,21.60
2009,07,19,14,19,21.70
2009,07,19,14,20,21.90
2009,07,19,14,21,22.00
2009,07,19,14,22,22.00
2009,07,19,14,23,22.00
2009,07,19,14,24,21.90
2009,07,19,14,25,21.90
2009,07,19,14,26,21.80
2009,07,19,14,27,21.70
2009,07,19,14,28,21.60
2009,07,19,14,29,21.40
2009,07,19,14,30,21.40
2009,07,19,14,31,21.50
2009,07,19,14,32,21.60
2009,07,19,14,33,21.70
2009,07,19,14,34,21.90
2009,07,19,14,35,22.00
2009,07,19,14,36,21.90
2009,07,19,14,37,21.90
2009,07,19,14,38,21.80
2009,07,19,14,39,21.80
2009,07,19,14,40,21.60
2009,07,19,14,41,21.60
2009,07,19,14,42,21.40
2009,07,19,14,43,21.40
2009,07,19,14,44,21.40
2009,07,19,14,45,21.40
2009,07,19,14,46,21.40
2009,07,19,14,47,21.40
2009,07,19,14,48,21.40
2009,07,19,14,49,21.40
2009,07,19,14,50,21.40
2009,07,19,14,51,21.40
2009,07,19,14,52,21.50
2009,07,19,14,53,21.60
2009,07,19,14,54,21.70
2009,07,19,14,55,21.80
2009,07,19,14,56,21.90
2009,07,19,14,57,22.00
2009,07,19,14,58,22.10
2009,07,19,14,59,22.30
2009,07,19,15,00,22.40
2009,07,19,15,01,22.50
2009,07,19,15,02,22.50
2009,07,19,15,03,22.50
2009,07,19,15,04,22.60
2009,07,19,15,05,22.70
2009,07,19,15,06,22.70
2009,07,19,15,07,22.60
2009,07,19,15,08,22.60
2009,07,19,15,09,22.60
2009,07,19,15,10,22.70
2009,07,19,15,11,22.70
2009,07,19,15,12,22.80
2009,07,19,15,13,22.60
2009,07,19,15,14,22.60
2009,07,19,15,15,22.50
2009,07,19,15,16,22.40
2009,07,19,15,17,22.40
2009,07,19,15,18,22.30
2009,07,19,15,19,22.20
2009,07,19,15,20,22.00
2009,07,19,15,21,21.90
2009,07,19,15,22,21.80
2009,07,19,15,23,21.70
2009,07,19,15,24,21.70
2009,07,19,15,25,21.80
2009,07,19,15,26,21.90
2009,07,19,15,27,21.90
2009,07,19,15,28,21.90
2009,07,19,15,29,21.90
2009,07,19,15,30,22.00
2009,07,19,15,31,22.00
2009,07,19,15,32,22.10
2009,07,19,15,33,22.10
2009,07,19,15,34,22.20
2009,07,19,15,35,22.30
2009,07,19,15,36,22.50
2009,07,19,15,37,22.60
2009,07,19,15,38,22.60
2009,07,19,15,39,22.50
2009,07,19,15,40,22.50
2009,07,19,15,41,22.40
2009,07,19,15,42,22.30
2009,07,19,15,43,22.20
2009,07,19,15,44,22.20
2009,07,19,15,45,22.20
2009,07,19,15,46,22.10
2009,07,19,15,47,22.10
2009,07,19,15,48,22.10
2009,07,19,15,49,22.10
2009,07,19,15,50,22.10
2009,07,19,15,51,22.10
2009,07,19,15,52,22.30
2009,07,19,15,53,22.40
2009,07,19,15,54,22.40
2009,07,19,15,55,22.40
2009,07,19,15,56,22.30
2009,07,19,15,57,22.20
2009,07,19,15,58,22.00
2009,07,19,15,59,22.00
2009,07,19,16,00,21.90
2009,07,19,16,01,22.00
2009,07,19,16,02,22.00
2009,07,19,16,03,22.10
2009,07,19,16,04,22.20
2009,07,19,16,05,22.20
2009,07,19,16,06,22.20
2009,07,19,16,07,22.10
2009,07,19,16,08,22.00
2009,07,19,16,09,22.00
2009,07,19,16,10,22.00
2009,07,19,16,11,21.90
2009,07,19,16,12,21.90
2009,07,19,16,13,22.00
2009,07,19,16,14,22.00
2009,07,19,16,15,21.90
2009,07,19,16,16,21.90
2009,07,19,16,17,21.90
2009,07,19,16,18,22.00
2009,07,19,16,19,22.10
2009,07,19,16,20,22.10
2009,07,19,16,21,22.10
2009,07,19,16,22,22.00
2009,07,19,16,23,22.00
2009,07,19,16,24,22.10
2009,07,19,16,25,22.30
2009,07,19,16,26,22.20
2009,07,19,16,27,22.10
2009,07,19,16,28,22.00
2009,07,19,16,29,22.10
2009,07,19,16,30,22.10
2009,07,19,16,31,22.00
2009,07,19,16,32,22.00
2009,07,19,16,33,22.00
2009,07,19,16,34,22.10
2009,07,19,16,35,22.00
2009,07,19,16,36,22.00
2009,07,19,16,37,22.00
2009,07,19,16,38,22.00
2009,07,19,16,39,22.00
2009,07,19,16,40,22.00
2009,07,19,16,41,22.00
2009,07,19,16,42,22.10
2009,07,19,16,43,22.00
2009,07,19,16,44,22.10
2009,07,19,16,45,22.10
2009,07,19,16,46,22.10
2009,07,19,16,47,22.10
2009,07,19,16,48,22.00
2009,07,19,16,49,22.00
2009,07,19,16,50,22.00
2009,07,19,16,51,22.00
2009,07,19,16,52,22.00
2009,07,19,16,53,22.00
2009,07,19,16,54,22.00
2009,07,19,16,55,22.10
2009,07,19,16,56,22.20
2009,07,19,16,57,22.20
2009,07,19,16,58,22.20
2009,07,19,16,59,22.10
2009,07,19,17,00,22.10
2009,07,19,17,01,22.10
2009,07,19,17,02,22.20
2009,07,19,17,03,22.30
2009,07,19,17,04,22.40
2009,07,19,17,05,22.50
2009,07,19,17,06,22.50
2009,07,19,17,07,22.50
2009,07,19,17,08,22.40
2009,07,19,17,09,22.40
2009,07,19,17,10,22.50
2009,07,19,17,11,22.50
2009,07,19,17,12,22.60
2009,07,19,17,13,22.50
2009,07,19,17,14,22.50
2009,07,19,17,15,22.50
2009,07,19,17,16,22.50
2009,07,19,17,17,22.60
2009,07,19,17,18,22.60
2009,07,19,17,19,22.70
2009,07,19,17,20,22.70
2009,07,19,17,21,22.80
2009,07,19,17,22,22.90